Theta_e
288 282 278 281 283 282 283 280 280 284 289 287 285 286 290 292 290 288 289 289 291 292 294 296 298 298 297 296 296 296 295 295 295 295 294 295 296 299 302 306 307 307 308 312
285 280 285 289 288 286 284 280 281 285 288 287 285 285 288 289 290 290 289 289 290 291 293 295 296 295 295 295 295 294 294 294 295 299 298 298 299 300 302 305 307 308 310 312
282 285 290 289 287 285 282 280 281 282 286 286 283 282 285 288 289 290 291 290 290 291 292 293 294 294 294 293 293 294 294 295 295 298 301 302 303 304 304 304 305 307 310 313
285 288 288 287 286 286 281 287 286 285 281 275 282 277 283 285 287 289 289 289 290 291 291 292 293 293 293 293 292 293 294 295 296 297 299 300 301 302 305 306 307 307 310 314
283 286 285 285 287 288 284 289 286 284 281 276 279 274 282 284 286 287 288 289 290 290 291 291 293 293 294 292 290 291 293 294 295 299 300 301 301 305 308 309 308 308 315 316
287 291 289 287 290 290 290 285 282 282 280 270 277 275 279 281 285 286 287 289 291 291 291 292 293 293 292 290 289 291 292 294 295 298 300 301 301 303 303 307 308 310 312 311
284 286 290 291 286 289 286 275 269 271 270 272 278 273 281 286 287 288 289 290 291 292 291 291 292 291 291 288 289 290 292 292 293 297 299 299 300 303 304 303 306 308 308 308
275 274 286 290 286 283 283 278 271 267 269 271 280 275 281 287 289 290 292 291 292 292 292 292 292 292 290 289 288 289 290 291 292 295 297 299 299 300 302 300 301 302 303 303
278 278 288 290 291 288 283 278 283 277 272 273 272 278 283 287 287 290 291 292 292 292 292 293 293 292 289 288 288 288 289 290 291 293 296 296 296 297 298 298 299 298 299 301
282 276 284 289 290 290 285 288 277 276 269 268 270 272 274 280 287 289 289 290 291 291 292 293 293 292 289 288 288 288 288 289 290 292 293 293 296 296 295 296 296 296 297 296
284 281 279 286 284 283 284 282 281 279 277 271 269 273 281 280 287 289 289 290 290 291 291 292 292 292 288 286 286 286 286 288 288 290 290 289 290 291 291 293 293 294 294 295
285 282 276 280 284 286 284 283 282 276 273 276 275 276 285 285 287 289 291 292 291 291 291 292 291 292 286 285 285 285 285 285 285 286 288 288 287 289 287 287 288 288 290 290
286 279 272 275 279 283 283 284 284 280 279 275 273 276 284 284 286 288 290 291 291 290 289 288 288 288 286 285 285 284 284 284 284 284 285 285 286 286 286 287 288 288 286 286
292 280 277 273 276 281 281 282 283 282 275 276 278 280 286 287 287 287 286 286 286 287 287 287 288 288 286 285 285 284 283 284 284 284 283 283 283 283 283 283 283 284 284 284
287 280 277 280 282 282 281 281 282 280 284 279 279 280 285 285 286 289 286 287 287 287 288 288 288 289 287 285 284 283 283 283 283 283 283 282 283 282 282 283 283 283 283 283
285 280 279 277 281 281 280 282 282 282 283 283 284 283 290 291 290 286 286 287 287 287 288 288 288 288 288 286 285 284 283 283 283 282 283 283 283 283 282 282 283 283 282 282
283 280 278 274 278 278 275 278 280 281 281 283 279 284 288 287 286 286 287 287 287 288 288 288 288 288 289 288 287 285 284 283 283 282 282 283 283 282 282 282 282 281 281 281
281 280 280 275 276 270 279 282 283 282 282 285 285 286 287 287 287 287 288 287 287 288 288 289 289 289 290 289 287 286 284 283 283 283 282 282 283 282 282 282 281 281 281 281
283 282 278 274 272 278 280 280 280 280 281 285 285 287 287 286 284 285 288 287 288 288 288 289 290 290 290 289 288 285 283 283 283 283 283 283 283 282 282 281 280 280 280 280
282 282 280 275 273 274 279 281 284 282 277 281 285 285 285 283 282 288 288 286 288 289 289 289 289 289 289 289 286 284 284 283 283 284 284 284 284 282 281 281 280 280 280 281
278 278 278 278 275 279 286 286 286 277 280 282 283 285 284 284 286 290 290 289 288 289 290 289 289 288 290 289 285 284 284 283 286 286 284 284 283 283 282 281 281 281 280 280
280 277 277 278 275 274 287 285 283 286 285 284 286 289 289 290 290 289 289 288 290 291 289 290 289 290 290 288 284 285 284 287 286 285 284 284 283 284 283 281 281 281 279 278
278 283 280 282 281 288 286 286 289 289 288 290 290 291 291 290 290 292 292 293 293 290 290 291 290 290 289 288 285 284 287 286 284 284 284 283 284 283 283 282 280 280 279 278
283 286 282 282 286 288 288 290 291 290 289 290 291 292 293 290 292 294 294 294 292 291 291 292 288 288 289 289 286 287 287 284 284 284 283 284 283 282 281 281 282 281 279 278
285 286 285 282 287 290 290 291 293 295 295 294 294 294 293 293 293 293 293 293 293 293 293 292 290 290 290 290 288 288 286 285 284 284 283 283 283 284 282 282 281 281 280 280
290 289 286 285 291 290 291 293 294 293 293 294 293 292 293 293 292 293 293 293 293 293 293 292 290 289 290 289 289 289 286 285 285 284 283 283 283 283 282 281 280 286 285 287
Wind_Speed
6 9 3 1 2 3 4 1 3 5 4 7 4 15 21 12 7 9 8 7 7 8 5 6 5 6 5 5 6 6 9 9 7 6 6 5 7 8 8 6 9 8 6 7
8 4 2 1 1 2 1 1 4 6 4 3 6 20 11 5 4 5 6 7 8 6 7 6 5 5 5 6 6 7 6 9 8 6 6 5 6 6 8 9 10 9 8 7
6 3 1 1 1 2 2 2 1 4 7 3 9 8 4 3 3 4 7 7 6 8 9 7 6 6 7 7 6 8 9 9 9 10 8 6 8 7 7 6 5 5 6 6
4 1 1 1 1 2 3 3 1 5 5 4 4 6 6 4 9 6 8 8 9 9 7 7 7 7 7 6 6 6 7 8 8 9 8 10 9 9 7 7 8 8 6 5
3 4 2 1 1 2 4 1 2 1 1 3 1 4 9 3 5 6 6 7 8 9 8 9 8 7 7 5 6 6 7 7 8 9 9 8 9 8 6 6 9 6 1 6
1 0 2 2 1 2 2 3 5 3 1 3 3 4 9 5 7 3 3 6 8 8 8 9 8 6 6 5 5 6 6 6 7 9 8 8 9 10 8 8 7 4 3 4
5 2 1 1 1 1 6 7 4 7 6 5 1 3 14 7 7 6 8 9 9 8 8 8 8 7 6 7 6 5 6 6 6 8 8 8 8 9 7 8 7 7 4 3
4 7 1 2 1 4 3 5 6 4 2 7 2 8 10 6 5 8 8 9 8 9 7 8 8 7 7 7 6 5 5 6 5 6 7 7 7 5 4 6 6 5 5 6
3 3 1 2 1 3 0 3 2 4 2 3 4 9 12 6 10 9 9 6 9 8 8 9 8 7 7 7 7 6 6 5 5 5 4 5 5 6 5 6 4 3 5 5
3 4 1 2 2 3 1 5 3 3 2 6 7 8 9 5 6 3 5 7 8 7 8 8 7 7 6 6 5 5 5 6 5 4 4 3 4 4 3 4 5 5 3 3
4 3 4 1 4 7 2 1 3 4 4 4 5 11 8 8 6 7 8 8 8 8 8 8 8 7 7 5 6 6 5 5 5 5 4 3 3 3 4 3 3 3 4 5
2 4 4 7 1 1 1 5 5 5 4 2 2 14 5 9 7 5 9 9 9 8 9 9 8 7 6 7 7 7 5 5 4 4 4 1 2 3 4 4 4 4 3 4
4 1 5 6 4 2 4 5 4 4 3 7 6 11 1 4 5 6 8 10 10 10 11 9 7 7 8 7 7 7 6 6 5 3 3 2 2 2 3 3 3 4 5 5
5 3 7 8 4 3 4 4 6 6 4 5 14 14 17 16 14 14 10 10 10 10 10 8 8 7 7 7 7 7 7 7 6 5 4 3 3 2 1 1 3 3 3 4
3 4 3 7 12 9 13 14 10 14 14 10 3 11 20 12 12 17 7 9 10 11 9 8 7 7 7 8 8 7 7 7 6 6 5 6 4 2 2 2 2 1 2 4
1 4 2 6 9 8 13 18 18 19 20 20 25 32 26 27 16 9 10 9 12 11 10 9 8 8 8 8 9 8 8 8 8 7 7 6 6 5 5 5 5 3 0 3
5 3 3 7 4 9 10 8 13 7 5 16 17 20 14 14 8 8 11 10 12 13 11 9 9 8 8 8 8 10 10 7 8 7 7 7 6 6 6 4 4 4 4 2
7 5 3 6 7 3 6 2 8 12 8 19 13 12 13 13 10 11 10 11 12 12 11 9 8 8 8 5 6 6 8 9 9 9 8 7 7 6 6 5 5 3 2 3
4 5 2 3 2 12 7 3 7 7 9 12 18 15 12 9 7 7 8 5 8 10 10 9 7 7 7 7 6 7 7 8 9 10 10 9 8 8 7 7 6 4 3 3
4 1 4 2 3 7 3 2 4 3 8 4 9 11 8 2 9 9 7 5 9 9 8 8 8 6 7 7 5 7 9 10 12 13 13 9 8 8 7 6 6 4 4 4
4 3 12 8 5 13 10 7 3 3 7 2 5 7 5 5 8 14 13 11 9 10 11 8 9 9 11 5 6 8 7 12 15 8 8 9 9 9 8 7 5 5 5 4
7 8 6 5 4 13 7 4 8 3 5 3 5 10 14 14 14 12 12 10 13 16 12 10 9 11 9 7 6 8 10 13 7 8 8 10 10 8 7 7 6 5 6 5
4 8 6 12 10 3 3 5 6 4 7 12 13 15 12 14 14 18 17 16 15 15 13 11 9 12 9 8 8 8 13 8 8 8 9 9 9 9 8 8 7 5 6 5
5 5 6 1 7 13 8 8 10 8 8 9 9 16 18 20 20 19 17 16 14 13 12 12 7 10 12 7 9 14 7 8 9 10 10 8 9 8 7 5 6 6 5 5
5 5 7 7 11 16 9 7 13 18 19 20 18 19 20 21 21 20 17 17 15 15 13 10 11 11 13 9 9 9 8 8 9 10 9 9 8 10 8 7 7 6 5 6
5 22 14 15 16 15 17 16 18 23 22 18 17 19 21 20 21 19 18 16 15 16 15 13 12 11 14 8 8 7 8 10 10 9 8 9 8 8 7 7 4 10 9 13
Wind_Direction
15 64 79 147 63 120 116 136 269 267 294 329 251 277 286 294 244 256 259 255 259 263 270 283 285 288 292 290 309 316 312 316 319 318 318 317 310 308 301 291 286 277 269 248
27 77 213 262 64 83 85 323 295 280 271 300 302 297 289 273 236 221 240 249 255 273 291 289 288 304 320 304 306 316 304 315 312 308 295 280 290 285 283 289 285 274 263 256
115 163 158 99 65 34 266 217 302 239 316 231 316 290 317 275 275 245 247 242 251 251 283 296 302 313 321 320 327 320 318 310 306 304 306 298 285 280 293 291 283 279 292 281
88 178 117 124 216 141 330 192 328 310 29 283 26 280 295 317 304 271 275 256 252 256 271 277 286 296 299 300 322 307 300 304 311 310 313 314 304 301 294 289 286 289 290 300
220 163 180 241 230 127 240 313 261 225 145 15 298 68 268 360 294 275 292 288 277 255 249 261 260 263 279 298 306 302 302 309 316 324 323 319 311 306 301 299 292 288 356 29
135 225 184 240 305 214 353 69 35 50 332 28 265 112 281 207 209 251 261 274 272 265 257 257 261 272 274 286 299 317 315 314 318 332 326 332 323 318 337 345 349 334 41 31
342 238 271 188 344 35 48 51 336 352 8 221 277 35 246 256 233 221 262 275 269 259 260 261 267 272 271 273 283 301 330 319 321 333 333 333 335 326 357 354 347 360 17 24
82 331 190 139 182 181 48 127 143 232 298 281 22 237 254 235 263 241 258 261 280 274 266 266 261 258 254 254 264 282 307 315 330 332 335 330 343 343 2 30 24 17 14 12
61 285 266 187 145 105 8 38 184 92 319 322 241 283 290 268 263 253 252 262 269 274 275 267 265 245 239 242 250 246 275 295 318 326 328 342 335 19 2 37 52 44 20 23
183 328 304 332 121 31 142 166 45 17 16 303 291 280 245 285 239 242 261 254 273 281 286 280 268 254 235 232 242 249 264 271 294 315 324 331 346 18 26 33 31 34 47 43
132 121 284 38 197 180 141 178 94 125 152 182 301 271 215 231 229 231 255 266 272 283 283 280 276 253 230 221 216 234 249 266 292 303 305 339 348 16 29 46 56 52 21 24
178 149 267 225 103 116 213 198 157 128 225 224 160 272 236 236 250 264 278 283 279 269 277 274 276 267 226 222 221 221 224 230 248 265 288 282 350 36 44 47 27 31 58 40
181 335 339 355 5 18 227 198 160 106 77 206 152 260 274 277 284 269 264 280 278 275 283 283 285 261 229 222 222 215 212 225 231 246 260 279 332 6 36 42 35 35 32 23
129 173 195 201 213 140 225 205 196 166 174 203 230 275 269 291 303 302 289 268 277 281 278 281 286 267 244 221 215 217 216 209 212 213 228 238 237 216 172 100 75 57 40 47
128 244 194 268 269 258 258 249 212 210 218 214 281 237 273 276 289 292 280 282 288 289 288 279 277 280 254 231 218 210 210 194 196 202 211 225 223 236 295 334 355 56 135 145
37 269 20 264 268 262 262 246 234 233 236 250 262 277 275 282 297 298 279 282 284 284 283 281 284 284 272 238 222 202 203 198 181 196 212 210 201 201 203 192 182 167 109 347
164 190 19 274 325 299 284 233 192 199 212 221 237 244 290 291 287 278 293 293 277 274 269 277 280 279 274 249 213 211 205 173 188 196 205 202 202 207 208 209 197 193 185 168
154 151 171 277 336 309 240 245 191 195 217 214 246 264 266 264 270 280 275 261 283 275 271 265 257 269 272 256 223 205 173 185 190 199 204 202 198 205 203 203 217 228 237 196
189 149 234 245 254 292 293 167 150 178 281 218 225 252 269 276 309 284 262 219 255 270 270 254 258 269 274 262 236 200 185 183 188 204 205 199 188 191 193 201 207 209 191 208
126 120 182 140 216 253 256 166 153 174 290 192 180 226 249 334 300 308 292 291 288 275 256 263 271 269 267 271 212 196 203 195 203 208 203 189 182 188 192 196 192 186 179 205
117 167 216 220 261 281 254 219 17 76 245 210 187 236 227 235 243 295 299 294 282 273 272 258 261 255 254 246 187 218 213 215 218 193 177 177 181 184 184 182 180 181 184 177
179 159 194 183 214 270 167 67 182 269 347 297 293 302 297 288 291 288 284 276 288 294 288 271 257 261 257 222 193 221 218 227 192 179 187 185 183 185 178 175 176 180 171 184
248 203 191 196 214 311 255 283 276 274 296 304 303 306 295 290 289 297 295 294 291 286 278 283 253 266 254 211 200 214 238 184 182 179 194 191 180 182 174 175 177 172 178 188
252 220 227 170 242 258 282 283 269 290 278 290 295 306 306 295 295 293 290 292 287 274 273 283 271 265 271 229 211 223 217 176 177 196 193 182 180 185 183 180 181 178 179 185
219 349 263 253 278 281 276 291 314 310 306 309 306 300 293 293 293 292 292 289 285 285 284 276 265 264 268 249 223 231 216 176 199 200 187 185 186 187 185 193 186 193 194 179
200 252 261 274 286 296 301 302 302 304 308 308 306 303 300 297 292 293 292 291 289 287 287 282 270 265 268 248 236 223 192 191 202 202 193 190 181 180 180 178 179 214 205 204